This is the latest recevied weather packets stored in our database for station/object NE8U. If no packets are shown the sender has not sent any weather packets the latest 10 day(s).
| Time | Temp. | Humidity | Pressure | Rain* | Wind** | Luminosity | Snow |
|---|---|---|---|---|---|---|---|
| 1777689003 | 25.56° C | 23% | 1012.2 hPa | 0 mm | - | 0 W/m² | - |
| 1777688699 | 26.11° C | 23% | 1012.4 hPa | 0 mm | - | 0 W/m² | - |
| 1777688396 | 26.11° C | 23% | 1012.1 hPa | 0 mm | - | 0 W/m² | - |
| 1777688094 | 26.11° C | 23% | 1012.2 hPa | 0 mm | - | 0 W/m² | - |
| 1777687790 | 26.67° C | 23% | 1012.1 hPa | 0 mm | - | 0 W/m² | - |
| 1777687489 | 26.67° C | 22% | 1012 hPa | 0 mm | - | 3 W/m² | - |
| 1777687185 | 26.67° C | 22% | 1012 hPa | 0 mm | - | 5 W/m² | - |
| 1777686883 | 27.22° C | 22% | 1011.9 hPa | 0 mm | - | 8 W/m² | - |
| 1777686579 | 27.22° C | 22% | 1011.6 hPa | 0 mm | - | 12 W/m² | - |
| 1777686277 | 27.78° C | 21% | 1011.9 hPa | 0 mm | - | 15 W/m² | - |
| 1777685973 | 27.78° C | 21% | 1011.7 hPa | 0 mm | - | 17 W/m² | - |
| 1777685668 | 27.78° C | 21% | 1011.6 hPa | 0 mm | - | 21 W/m² | - |
| 1777685365 | 27.78° C | 21% | 1011.6 hPa | 0 mm | - | 24 W/m² | - |
| 1777685063 | 28.33° C | 20% | 1012 hPa | 0 mm | - | 28 W/m² | - |
| 1777684760 | 28.33° C | 20% | 1011.7 hPa | 0 mm | - | 33 W/m² | - |
| 1777684456 | 28.33° C | 20% | 1011.7 hPa | 0 mm | - | 31 W/m² | - |
| 1777684154 | 28.89° C | 20% | 1011.6 hPa | 0 mm | - | 39 W/m² | - |
| 1777683850 | 28.89° C | 20% | 1011.7 hPa | 0 mm | - | 49 W/m² | - |
| 1777683546 | 28.89° C | 19% | 1011.6 hPa | 0 mm | - | 37 W/m² | - |
| 1777683245 | 29.44° C | 19% | 1011.3 hPa | 0 mm | - | 40 W/m² | - |
| 1777682942 | 29.44° C | 19% | 1011.3 hPa | 0 mm | - | 101 W/m² | - |
| 1777682637 | 30° C | 18% | 1011.4 hPa | 0 mm | - | 120 W/m² | - |
| 1777682335 | 30° C | 19% | 1011.6 hPa | 0 mm | - | 141 W/m² | - |
| 1777682032 | 30° C | 19% | 1011.4 hPa | 0 mm | - | 157 W/m² | - |
| 1777681728 | 29.44° C | 20% | 1011.4 hPa | 0 mm | - | 50 W/m² | - |
* Rain latest hour (hover to see other rain measurements)
** Current wind speed in m/s (hover to see current wind gust speed)